Location: Seattle
(47.6064°N, 122.3308°W)
Time: 06:55:13
(UTC-07:00)

Tiros 1 - Pass Details

Date: 04 August 2021
Orbit: 630 x 663 km, 48.4° (Epoch: 25 September)

Event Time Altitude Azimuth Distance (km) Brightness Sun altitude
Rises 22:09:47 0° 284° (WNW) 2,979 11.7 -13.3°
Reaches altitude 10° 22:12:09 10° 282° (WNW) 2,061 10.6 -13.6°
Maximum altitude 22:16:53 71° 200° (SSW) 685 7.1 -14.1°
Enters shadow 22:19:49 22° 119° (ESE) 1,389 8.3 -14.5°
